DW8228 Weather Reports


Display with metric or nautical units.
time (UTC)temp
F
wind
direction
speed
MPH
gust
MPH
rain 1hr
in
rain 24hr
in
rain mn
in
humidity
%
barometer
mb
20260906060017 53 266 4.0 8.0 0.00 0.00 0.00 61 1006.8
20260906054515 53 283 5.0 10.0 0.00 0.00 0.00 61 1006.6
20260906053013 52 298 7.0 12.0 0.00 0.00 0.00 61 1006.4
20260906051511 52 293 6.0 13.0 0.00 0.00 0.00 62 1006.3
20260906050009 52 284 7.0 14.0 0.00 0.00 0.00 63 1006.1
20260906044508 51 265 7.0 12.0 0.00 0.00 0.00 64 1006.0
20260906043007 51 292 8.0 14.0 0.00 0.00 0.00 64 1005.9
20260906041505 50 298 11.0 16.0 0.00 0.00 0.00 64 1005.6
20260906040003 50 268 10.0 15.0 0.00 0.00 0.00 64 1005.5
20260906034606 50 287 11.0 16.0 0.00 0.00 0.00 64 1005.0
20260906033110 50 319 9.0 17.0 0.00 0.00 0.00 64 1004.8
20260906031557 50 274 12.0 17.0 0.00 0.00 0.00 64 1004.8
20260906030054 51 288 13.0 18.0 0.00 0.00 0.00 64 1004.7
20260906024556 50 313 10.0 17.0 0.00 0.00 0.00 64 1004.5
20260906023054 50 291 9.0 17.0 0.00 0.00 0.00 64 1004.5
20260906021547 50 294 9.0 15.0 0.00 0.00 0.00 65 1004.3
20260906020057 50 277 9.0 15.0 0.00 0.00 0.00 65 1004.1
20260906014545 50 292 10.0 16.0 0.00 0.00 0.00 65 1004.1
20260906013050 50 269 9.0 18.0 0.00 0.00 0.00 65 1003.9
20260906011557 50 292 11.0 17.0 0.00 0.00 0.00 65 1003.6
20260906010042 50 9 10.0 17.0 0.00 0.00 0.00 65 1003.5
20260906004536 51 316 9.0 19.0 0.00 0.00 0.00 65 1003.2
20260906003035 51 287 10.0 21.0 0.00 0.00 0.00 64 1003.2
20260906001531 51 297 9.0 17.0 0.00 0.00 0.00 63 1002.8
20260906000046 51 313 12.0 19.0 0.00 0.00 0.00 63 1002.8
20260905234628 52 288 12.0 22.0 0.00 0.00 0.00 63 1002.6
20260905233025 52 291 15.0 21.0 0.00 0.00 0.00 63 1002.3
20260905231523 52 311 16.0 25.0 0.00 0.00 0.00 63 1002.2
20260905230020 53 319 12.0 23.0 0.00 0.00 0.00 62 1002.0
20260905224516 53 295 14.0 19.0 0.00 0.00 0.00 62 1001.8
20260905223012 53 308 10.0 18.0 0.00 0.00 0.00 63 1001.5
20260905221509 54 269 13.0 20.0 0.00 0.00 0.00 63 1001.2
20260905220011 54 312 14.0 21.0 0.00 0.00 0.00 63 1001.1
20260905214505 55 306 12.0 18.0 0.00 0.00 0.00 63 1000.8
20260905213102 55 315 11.0 19.0 0.00 0.00 0.00 63 1000.7
20260905211559 56 284 10.0 18.0 0.00 0.00 0.00 63 1000.6
20260905210105 56 360 10.0 17.0 0.00 0.00 0.00 63 1000.3
20260905204558 57 290 10.0 19.0 0.00 0.00 0.00 63 1000.1
20260905203049 57 287 10.0 16.0 0.00 0.00 0.00 64 999.9
20260905201547 57 9 8.0 13.0 0.00 0.00 0.00 64 999.7
20260905200044 57 281 9.0 14.0 0.00 0.00 0.00 64 999.4
20260905194543 57 246 6.0 15.0 0.00 0.00 0.00 65 999.3
20260905193042 57 286 8.0 12.0 0.00 0.00 0.00 64 999.2
20260905191541 57 283 7.0 14.0 0.00 0.00 0.00 64 999.2
20260905190040 57 223 7.0 15.0 0.00 0.00 0.00 64 999.2
20260905184554 57 269 6.0 11.0 0.00 0.00 0.00 65 999.1
20260905183046 57 234 5.0 10.0 0.00 0.00 0.00 65 998.8
20260905181546 58 263 6.0 11.0 0.00 0.00 0.00 64 998.8
20260905180036 58 277 8.0 13.0 0.00 0.00 0.00 64 998.6
20260905174532 59 256 8.0 15.0 0.00 0.00 0.00 63 998.4
20260905173033 59 238 8.0 16.0 0.00 0.00 0.00 62 998.2
20260905171530 60 223 8.0 16.0 0.00 0.00 0.00 61 998.1
20260905170027 60 262 10.0 17.0 0.00 0.00 0.00 60 997.9
20260905164527 61 275 7.0 16.0 0.00 0.00 0.00 59 997.9
20260905163025 61 225 7.0 16.0 0.00 0.00 0.00 58 997.7
20260905161524 61 276 6.0 16.0 0.00 0.00 0.00 59 997.7
20260905160027 61 236 8.0 15.0 0.00 0.00 0.00 59 997.4
20260905154521 61 283 8.0 17.0 0.00 0.00 0.00 59 997.3
20260905153019 61 240 9.0 18.0 0.00 0.00 0.00 58 997.2
20260905151518 61 270 12.0 19.0 0.00 0.00 0.00 57 997.1
20260905150016 61 259 10.0 19.0 0.00 0.00 0.00 56 997.0
20260905144516 62 252 12.0 18.0 0.00 0.00 0.00 55 996.9
20260905143014 64 235 10.0 19.0 0.00 0.00 0.00 53 996.7
20260905141513 65 263 8.0 17.0 0.00 0.00 0.00 52 996.5
20260905140011 66 219 7.0 15.0 0.00 0.00 0.00 50 996.4
20260905134509 65 253 9.0 17.0 0.00 0.00 0.00 47 996.3
20260905133010 65 279 8.0 15.0 0.00 0.00 0.00 48 996.3
20260905131507 65 259 6.0 14.0 0.00 0.00 0.00 48 996.2
20260905130008 64 248 8.0 17.0 0.00 0.00 0.00 45 996.1
20260905124503 65 246 8.0 15.0 0.00 0.00 0.00 46 995.9
20260905123101 65 259 7.0 15.0 0.00 0.00 0.00 46 995.8
20260905121602 65 269 7.0 14.0 0.00 0.00 0.00 48 995.8
20260905120055 64 239 8.0 14.0 0.00 0.00 0.00 48 995.7
20260905114554 64 266 6.0 11.0 0.00 0.00 0.00 51 995.6
20260905113052 63 253 5.0 11.0 0.00 0.00 0.00 53 995.6
20260905111640 64 360 8.0 15.0 0.00 0.00 0.00 49 995.5
20260905110047 63 278 8.0 13.0 0.00 0.00 0.00 51 995.4
20260905104545 63 251 6.0 13.0 0.00 0.00 0.00 52 995.1
20260905103043 63 291 5.0 11.0 0.00 0.00 0.00 53 995.0
20260905101549 62 275 6.0 12.0 0.00 0.00 0.00 55 994.9
20260905100047 62 296 9.0 13.0 0.00 0.00 0.00 54 994.9
20260905094538 63 312 3.0 8.0 0.00 0.00 0.00 54 994.6
20260905093035 63 304 7.0 11.0 0.00 0.00 0.00 55 994.5
20260905091534 63 292 6.0 11.0 0.00 0.00 0.00 55 994.5
20260905090033 62 291 7.0 11.0 0.00 0.00 0.00 56 994.4
20260905084532 62 5 2.0 8.0 0.00 0.00 0.00 58 994.3
20260905083030 60 277 4.0 8.0 0.00 0.00 0.00 60 994.2
20260905081524 61 271 4.0 8.0 0.00 0.00 0.00 59 994.2
20260905080033 60 277 3.0 8.0 0.00 0.00 0.00 60 994.1
20260905074520 58 238 5.0 8.0 0.00 0.00 0.00 62 994.0
20260905073014 57 290 7.0 11.0 0.00 0.00 0.00 64 993.9
20260905071519 57 302 4.0 9.0 0.00 0.00 0.00 65 993.8
20260905070009 57 291 4.0 9.0 0.00 0.00 0.00 65 993.7
20260905064513 56 279 4.0 8.0 0.00 0.00 0.00 66 993.6
20260905063101 55 304 4.0 8.0 0.00 0.00 0.00 67 993.5
20260905061601 54 281 6.0 9.0 0.00 0.00 0.00 68 993.5